Vorticity
nan nan nan nan nan nan nan nan nan nan nan nan nan nan nan nan nan nan nan nan nan nan nan nan nan nan nan nan nan nan nan nan nan nan nan nan nan nan nan nan nan nan nan nan nan nan nan nan nan
nan -1 -0 5 5 7 7 8 11 9 9 5 4 8 5 6 11 10 8 9 5 5 6 5 5 6 8 9 7 3 2 3 5 14 20 13 7 9 7 6 5 2 1 8 9 9 8 5 nan
nan -2 6 8 7 5 10 10 6 11 10 3 3 5 8 8 11 5 9 8 5 5 4 6 6 8 9 8 7 5 3 3 4 13 17 11 7 9 5 5 3 1 10 14 9 7 7 5 nan
nan 5 6 4 9 11 13 6 3 5 4 9 6 6 8 8 9 12 11 4 5 5 6 5 3 6 9 9 8 7 5 5 5 11 10 4 7 7 6 3 1 4 10 10 8 7 5 4 nan
nan 5 5 5 6 13 9 6 3 3 6 10 9 6 2 7 15 12 5 6 5 4 6 4 4 5 8 9 8 7 6 7 6 4 4 6 4 2 5 5 1 5 7 5 6 6 4 4 nan
nan 6 5 7 9 7 4 6 7 10 12 7 6 5 5 12 10 5 5 6 5 6 5 6 6 6 6 7 7 7 5 5 7 8 5 3 4 4 2 5 7 8 5 4 4 4 3 3 nan
nan 8 7 8 7 6 8 5 9 8 5 2 3 4 9 11 7 6 5 5 5 5 6 6 6 7 5 4 5 5 5 6 6 7 7 7 6 6 7 8 8 7 6 5 4 4 4 3 nan
nan 8 7 8 5 9 9 7 8 1 4 8 6 7 11 11 7 5 5 5 5 5 5 4 5 5 6 6 6 5 5 6 6 6 7 6 5 6 6 4 7 7 6 6 5 4 4 4 nan
nan 7 8 8 9 10 6 6 3 7 5 0 11 15 15 11 5 5 4 4 4 5 6 6 5 4 6 6 6 4 5 5 5 5 4 3 6 5 5 5 5 5 7 6 5 5 4 3 nan
nan 8 7 8 11 13 9 5 5 9 -1 4 12 14 12 5 5 4 3 4 6 6 5 5 6 5 5 5 4 5 6 4 4 5 4 5 7 6 4 5 6 5 5 4 4 5 5 4 nan
nan 10 7 11 17 12 7 4 9 7 4 11 10 5 4 3 5 5 5 6 7 5 6 7 5 6 5 4 5 5 5 6 6 5 5 6 4 6 6 4 4 5 7 5 5 5 5 6 nan
nan 8 13 13 15 11 7 2 6 3 12 18 10 5 4 5 5 5 5 6 6 6 7 7 6 6 5 4 6 6 6 6 6 6 5 5 6 6 5 6 6 6 6 7 6 6 6 7 nan
nan 7 9 15 13 9 6 5 4 8 15 14 9 6 4 4 5 6 6 6 7 7 7 7 6 6 7 6 6 7 7 7 6 6 6 6 5 5 6 7 6 7 6 7 7 6 6 8 nan
nan 8 4 6 10 10 9 7 5 13 12 8 6 4 4 5 5 4 6 6 6 7 8 7 6 6 6 6 6 6 7 7 6 7 7 5 5 6 6 6 6 7 7 6 7 6 7 7 nan
nan 7 5 6 7 10 6 3 10 15 8 5 4 5 5 6 5 5 5 6 6 6 7 7 7 7 6 6 6 7 6 6 7 8 8 7 6 6 6 7 8 8 8 8 8 7 7 6 nan
nan 8 8 9 6 6 1 7 16 12 6 6 6 5 6 7 4 5 6 7 7 7 8 7 8 7 6 5 6 6 7 7 7 7 8 8 8 8 7 7 7 7 9 10 8 8 8 8 nan
nan 8 10 8 8 6 8 8 15 10 4 5 7 6 6 6 6 7 7 7 8 8 7 7 8 7 7 7 7 8 8 8 8 7 8 8 9 8 7 7 7 9 9 9 9 8 9 7 nan
nan 8 7 10 11 9 10 9 12 10 5 5 5 5 7 7 9 7 6 7 8 8 8 7 7 8 8 8 8 8 8 9 10 8 8 8 8 8 8 9 9 9 9 8 8 9 8 7 nan
nan 5 10 13 9 6 9 12 14 9 4 4 6 7 6 5 8 10 10 8 7 8 8 9 7 7 6 7 7 8 10 9 9 10 8 8 9 9 9 7 10 9 9 9 8 6 9 9 nan
nan 5 12 10 7 9 6 14 19 11 8 5 4 4 5 7 7 10 11 9 8 7 7 7 8 7 5 5 7 9 10 9 9 10 10 10 9 8 7 5 8 10 12 11 9 8 7 9 nan
nan 8 8 9 10 8 9 17 14 11 8 8 7 7 7 8 8 8 12 12 9 8 8 8 7 8 7 6 4 6 7 9 9 8 9 10 9 11 8 7 8 10 10 11 11 10 7 8 nan
nan 16 10 7 8 5 12 12 14 16 13 7 8 8 9 9 8 9 10 11 11 9 9 9 4 8 10 8 5 5 4 6 8 9 9 9 7 7 11 11 10 10 8 9 10 9 10 10 nan
nan 13 10 9 8 8 10 7 11 14 18 17 11 9 11 11 9 10 10 10 8 12 11 7 7 5 9 7 6 5 4 6 9 10 8 7 7 10 12 10 10 8 8 8 9 9 10 9 nan
nan 0 4 6 7 9 6 11 11 8 10 16 18 14 12 11 10 9 10 11 10 9 10 10 8 6 8 7 7 6 6 5 5 8 8 8 9 10 9 8 7 8 9 8 8 9 10 10 nan
nan 3 5 7 8 7 11 10 10 12 9 6 11 14 15 14 13 11 11 9 10 10 9 8 8 8 7 8 7 8 7 8 7 7 9 8 8 9 9 8 8 8 7 9 10 10 10 12 nan
nan 8 9 8 8 9 10 11 10 9 7 8 10 10 12 14 13 13 12 10 9 9 9 8 8 7 8 7 8 9 8 6 9 9 10 9 9 11 9 8 8 8 8 10 10 10 9 9 nan
nan 10 9 11 8 8 8 12 8 10 12 12 11 10 8 10 12 13 12 11 10 10 10 9 8 7 7 8 8 8 8 7 8 10 8 8 9 11 10 8 8 8 9 9 7 8 8 7 nan
nan 12 6 7 7 9 10 10 11 11 15 12 10 9 10 12 15 13 12 12 11 9 8 10 10 10 6 6 6 8 8 8 9 10 10 9 10 10 9 7 7 8 8 9 9 9 9 9 nan
nan 3 7 7 9 10 7 14 12 4 10 12 9 9 10 12 11 11 11 12 11 11 10 9 9 9 8 8 7 8 10 10 9 8 9 9 10 10 9 8 8 8 8 8 8 9 9 9 nan
nan nan nan nan nan nan nan nan nan nan nan nan nan nan nan nan nan nan nan nan nan nan nan nan nan nan nan nan nan nan nan nan nan nan nan nan nan nan nan nan nan nan nan nan nan nan nan nan nan
CAPE
1742 1631 1599 1978 354 244 248 148 103 110 31 71 0 73 295 400 66 4 368 307 437 786 1069 1102 1548 1373 1365 1409 1243 1054 1001 837 701 870 770 730 714 476 634 299 82 16 73 130 185 327 487 737 661
1814 1607 1961 1198 167 62 455 125 254 289 290 194 265 378 383 491 378 370 133 591 604 829 810 777 1741 1569 1472 1485 1416 1188 1241 1004 810 684 641 918 695 512 882 288 317 147 159 125 154 772 972 713 923
1969 2442 2770 279 8 124 247 176 109 39 43 36 133 370 270 193 292 147 403 749 827 967 794 1049 1659 1595 1548 1590 1636 1567 1471 1319 1069 806 940 825 926 813 527 415 248 160 167 229 613 944 836 601 620
2557 1655 70 105 68 268 102 116 24 0 0 17 69 212 465 300 159 412 599 715 805 845 1057 1639 1269 1612 1612 1678 1705 1799 1756 1571 1492 1154 1173 1040 688 454 336 358 249 205 438 786 1090 865 542 718 1022
288 120 245 113 263 112 62 55 8 142 54 40 0 6 294 677 703 598 634 678 753 1019 1095 965 1624 1732 1530 1472 1771 1979 1942 1864 1697 1305 1436 953 790 124 99 581 805 1083 896 960 1077 827 833 963 861
124 53 120 172 301 102 112 86 69 50 79 3 0 10 404 736 592 423 444 662 684 925 1180 1549 1787 1959 1780 1889 1946 2196 2137 1904 1698 1650 1251 1084 1067 956 863 1329 1576 1351 1136 1031 1068 854 750 703 623
183 314 185 157 387 238 127 78 85 52 1 41 137 50 454 517 440 221 498 651 723 1014 1053 1388 1659 1687 1955 1879 1998 2077 2163 2134 2003 1902 1711 1479 1599 1556 1489 1548 1503 1583 1382 1192 1020 862 693 611 469
55 176 186 95 225 229 145 89 55 72 236 235 210 15 0 374 267 64 569 435 662 909 1130 1199 1708 1595 1625 1656 2110 2096 1956 2143 1999 1899 1923 1869 1862 1831 1414 1340 1507 1187 967 949 897 726 653 575 452
19 307 274 142 22 219 152 71 66 134 172 156 201 147 1 262 137 11 429 227 751 945 1246 1238 1296 1561 1968 1604 1683 2122 2143 2072 2112 1915 1894 2111 2043 1876 1692 1659 1365 1148 548 804 682 559 543 594 746
244 242 104 60 96 236 190 85 109 72 114 223 275 165 70 113 63 0 62 183 483 417 695 1181 1349 1483 1456 1381 2193 2435 2117 2052 2101 2412 2503 2272 2194 2003 1569 1623 1602 1578 1100 825 836 829 878 869 167
254 257 94 117 109 222 197 164 82 24 51 250 274 153 24 106 244 0 0 150 233 246 580 891 1400 1643 1422 1706 2042 1756 2073 2009 1935 2124 2407 2204 1821 1828 1790 1138 2022 2025 1574 954 980 764 562 571 314
206 185 200 180 205 202 231 180 91 14 23 122 288 242 265 309 276 17 0 90 207 332 617 805 1167 1264 1630 1627 2067 1486 1408 1648 1458 1602 1854 1802 1491 1372 1197 1216 1160 1474 1222 1206 1033 546 550 522 471
157 101 184 94 123 213 192 223 138 52 53 203 244 287 324 310 260 49 0 53 109 195 393 590 1078 1329 1388 1462 1581 1794 1672 1249 847 1241 1133 1165 1184 1436 1394 1152 1145 1184 1048 904 746 836 746 656 603
72 157 133 219 116 64 130 135 74 62 201 257 234 307 344 378 334 201 34 36 108 111 367 421 960 855 881 1337 1611 1582 1383 1352 1204 1171 1129 1371 1215 1438 1414 1776 1410 1289 1076 1022 1026 999 883 977 835
2 49 47 237 148 45 98 91 64 92 228 316 349 363 336 426 454 397 238 137 121 182 316 502 672 757 724 1025 1060 1170 1129 1131 1303 1202 1379 1438 1599 1554 1513 1526 1570 1501 1412 1485 1258 1198 1076 1214 1010
0 0 22 49 137 96 51 189 128 45 285 351 384 409 427 495 552 502 438 430 273 320 395 641 542 649 718 532 976 958 1005 1058 1124 1150 1285 1506 1515 1586 1737 1589 1404 1400 1577 1385 1394 1319 1148 1258 1228
0 4 15 2 83 150 117 196 162 37 198 351 361 467 485 596 536 469 392 288 459 521 610 790 859 795 741 750 759 1070 972 1084 1166 1121 1238 1376 1509 1392 1543 1336 1370 1646 1629 1519 1265 1308 1349 1749 1764
1 26 62 46 210 32 134 132 130 66 47 129 223 216 311 337 454 327 227 134 260 441 628 799 969 904 958 913 1108 1128 840 669 733 976 1270 1517 1520 1497 1541 1461 1687 1725 1749 1740 1571 1584 1925 882 1181
0 5 20 45 172 168 28 234 200 109 50 76 68 38 54 97 164 127 74 108 150 343 524 684 1073 1060 1088 1191 1253 1316 1211 974 718 1024 1408 1816 1763 1674 1797 2108 1818 1713 2253 1836 1859 1460 1188 478 716
21 45 70 34 216 137 276 277 118 186 185 120 89 80 68 48 5 0 0 33 136 459 606 719 1186 1354 1301 1447 1524 1181 927 1108 1092 1397 1529 1739 1754 1915 1506 386 297 1613 2525 2090 1906 1935 1994 1703 1228
13 9 43 67 75 116 89 132 187 176 177 153 146 54 35 45 102 47 10 1 36 386 748 933 1163 1179 1499 1729 1533 1503 1360 1402 1394 1337 1415 1485 1470 1020 1525 1055 1112 2283 1922 2393 2070 1957 1749 1939 1604
0 2 21 88 106 95 27 15 0 227 272 224 208 245 223 91 72 189 88 59 78 306 709 1089 1289 1197 1392 1854 1622 1823 1378 2250 1507 1546 1383 1221 812 1135 2091 2175 2167 2075 2388 2217 1945 1606 1749 1708 1884
0 14 81 111 83 17 0 62 21 0 326 489 381 363 365 343 269 324 258 148 233 392 663 997 1370 1242 1462 1758 1831 1887 1692 2137 1582 1552 1292 1083 987 1373 2162 2174 1883 1861 1619 1546 1443 1380 1453 1427 1249
0 0 0 0 39 51 0 2 43 93 261 286 376 358 336 308 362 459 539 284 357 431 617 853 1341 1345 1669 1773 1896 2038 2137 1747 1746 1686 1484 1047 1130 1831 1781 1780 1445 1059 838 661 277 197 417 1182 1465
0 84 225 139 21 1 0 2 87 1 0 75 261 304 258 383 304 369 479 514 503 545 627 784 1234 1594 1760 1638 1766 1904 2113 2147 1906 2092 1707 1641 1774 1795 1742 1197 741 410 168 129 134 85 146 439 603
4 103 205 70 49 14 0 35 87 1 0 0 22 143 265 214 185 368 538 716 772 676 744 883 1136 1788 1587 1565 1842 2030 2164 2120 1975 1993 1952 1914 1995 1897 1661 788 232 57 8 13 28 1 0 1 2
5 126 0 35 0 6 0 23 2 1 67 41 92 126 177 215 244 381 546 764 847 863 912 1025 1330 1397 1579 1432 1777 2129 2240 2175 2075 2392 2172 1930 2058 1798 1294 365 106 0 0 0 0 0 0 0 0
22 0 33 16 39 0 0 0 20 77 195 277 267 278 493 686 621 636 675 697 862 906 1030 1026 1251 1438 1507 1544 1761 1753 1878 2111 2173 2322 2318 2122 1933 1598 697 241 22 0 0 0 0 0 0 0 0
0 0 0 5 0 0 0 0 62 138 8 71 233 243 323 1003 760 992 879 783 786 932 1120 1295 1380 1341 1286 1278 1453 1534 1784 1953 2238 2243 2398 2272 1890 1372 515 254 51 0 0 0 0 0 0 0 0
0 0 0 72 5 0 0 0 0 0 0 0 0 8 42 1060 1104 1041 1112 989 985 1080 1193 1399 1493 1458 1527 1530 1698 1751 2023 2016 2176 2292 2217 2058 1622 966 484 160 53 3 0 0 0 0 0 0 0